Wind_Speed
24 24 22 21 20 18 16 17 21 19 18 18 18 18 17 16 16 15 13 13 11 12 11 12 13 14 14 15 16 15 13 13 12 11 11 12 12 12 12 12 12 12 10 9 8 7 6 5 6
27 27 26 25 20 19 18 15 21 22 23 20 19 20 21 13 17 16 14 13 11 12 12 14 15 17 17 18 18 17 15 14 13 12 12 13 14 14 14 13 14 13 13 11 11 10 9 8 7
31 31 29 27 23 19 19 15 27 26 19 21 21 21 21 18 16 14 13 12 11 12 15 16 17 19 20 19 19 18 16 15 14 13 13 13 14 16 14 14 14 15 14 13 12 12 11 10 9
32 35 32 30 23 21 21 20 18 27 24 23 22 22 20 18 16 15 14 14 14 13 15 17 19 22 23 22 21 19 17 17 17 15 15 15 14 15 15 15 15 16 16 15 14 13 13 12 12
35 35 34 33 25 23 26 27 32 32 25 24 24 24 21 19 17 16 15 15 15 16 19 21 21 21 22 23 23 22 20 20 19 19 18 18 16 14 14 14 13 14 15 15 15 15 14 15 15
36 34 36 33 27 26 26 27 35 19 24 25 24 25 21 19 18 17 16 18 20 20 20 20 20 20 21 21 21 22 22 21 21 19 18 18 15 13 12 14 15 15 16 16 16 16 17 17 17
34 34 34 33 30 29 27 29 31 34 24 28 24 29 20 21 21 20 19 21 22 22 22 22 23 23 21 19 19 19 19 19 19 17 15 15 15 15 15 15 17 17 17 18 18 18 18 19 19
36 37 35 34 32 28 26 31 36 39 30 28 24 28 22 22 21 21 22 23 22 22 21 19 18 17 16 15 14 14 15 13 12 12 12 15 15 17 18 17 18 18 19 19 19 20 20 21 22
42 41 36 32 34 29 29 34 41 36 30 28 26 33 24 22 24 23 23 22 21 20 19 18 15 14 14 14 13 14 15 15 15 16 17 17 17 18 19 19 19 19 20 20 21 22 22 23 23
46 44 38 38 37 35 35 39 40 35 36 28 32 30 28 27 25 23 22 22 22 21 19 17 17 16 16 17 17 17 16 16 18 19 19 18 17 18 18 18 18 19 19 20 21 21 23 23 24
44 43 42 42 42 41 40 36 37 40 26 37 34 34 31 28 28 25 24 24 23 23 22 20 18 18 17 19 19 18 18 18 19 21 21 19 17 19 19 18 18 19 19 20 20 21 22 24 25
42 43 45 47 44 44 44 39 40 48 31 31 36 33 35 31 30 28 28 25 25 26 24 23 20 19 20 20 20 19 20 20 20 21 24 25 23 21 19 18 19 20 20 20 21 23 24 24 26
38 40 43 45 47 46 46 41 44 45 41 37 37 35 30 33 34 33 32 28 27 29 26 24 23 23 22 22 23 22 24 26 25 24 26 26 25 22 22 21 21 22 21 22 24 25 26 26 27
37 40 41 44 46 46 50 49 46 42 45 43 41 40 37 33 37 35 34 31 31 31 30 27 27 24 26 25 24 26 29 27 27 25 25 26 25 23 22 21 22 24 25 26 26 26 27 28 29
37 41 42 42 43 44 47 51 45 44 48 48 45 41 41 37 36 34 37 32 34 34 33 31 29 27 29 24 28 29 27 26 26 26 27 29 26 27 25 22 25 27 25 26 27 28 30 31 32
38 41 42 41 44 44 48 51 44 49 51 49 51 45 44 42 38 39 36 37 36 39 35 36 33 34 29 32 33 28 26 26 24 25 23 26 29 25 20 22 25 27 29 31 32 32 33 34 36
32 36 40 44 45 48 52 51 47 46 51 50 52 49 42 45 45 44 40 42 42 42 36 27 29 31 30 33 26 23 24 27 25 24 25 24 21 19 22 28 30 33 34 34 34 35 35 36 37
44 45 43 42 43 50 54 56 50 46 50 50 52 52 44 47 46 45 40 43 33 41 38 31 26 28 32 30 30 28 26 22 20 18 20 25 26 25 27 30 33 34 38 37 38 37 38 39 39
44 47 47 45 46 51 48 57 56 49 48 49 52 53 49 47 46 47 47 49 50 35 45 22 26 32 34 32 29 31 21 17 21 24 25 28 30 30 30 32 34 38 38 37 38 39 39 39 40
34 40 41 44 45 49 50 50 51 55 47 49 51 53 45 48 46 47 49 48 45 36 25 29 32 35 30 26 28 27 21 21 25 29 30 30 31 33 34 35 36 37 38 38 39 40 40 41 40
31 35 37 40 41 47 50 51 48 50 52 50 50 50 54 46 44 46 46 43 43 41 41 36 36 34 29 29 29 33 27 29 31 33 31 32 32 33 34 35 37 38 38 40 41 41 41 40 39
29 30 31 30 31 40 37 42 43 41 45 49 50 51 51 45 46 44 46 43 39 41 36 37 33 30 28 31 34 29 32 33 33 34 34 34 34 34 35 37 38 40 41 42 43 42 39 40 45
22 23 27 20 31 25 29 37 36 36 34 47 41 48 47 46 45 42 41 41 39 38 35 38 35 31 35 36 32 32 36 34 32 33 34 35 36 37 38 39 41 43 44 43 40 42 45 48 52
22 14 15 12 15 25 22 33 27 25 17 27 35 39 43 44 43 41 38 40 43 40 40 40 40 38 32 32 31 34 36 34 34 35 36 37 38 40 41 43 45 45 43 43 47 50 54 58 62
20 18 16 22 11 4 24 25 14 34 25 25 33 31 33 39 39 40 37 37 35 36 35 41 36 29 33 34 36 36 35 37 37 38 39 40 41 43 44 47 47 45 48 51 54 58 62 66 69
26 26 26 24 8 4 6 9 31 27 38 33 25 24 33 33 35 34 33 35 36 35 37 34 35 35 34 36 36 36 37 38 39 39 43 43 45 47 48 49 49 51 54 58 62 66 69 72 74
29 22 22 16 13 3 12 16 18 19 27 20 27 25 18 30 30 31 32 33 36 37 37 36 36 35 36 36 35 36 39 41 40 44 44 47 50 51 50 51 54 58 62 66 69 72 74 75 76
27 25 27 25 19 19 13 13 15 11 9 19 21 23 22 24 27 29 29 31 31 32 33 31 31 31 34 35 35 38 40 41 43 45 48 51 52 52 54 58 62 65 69 71 73 74 75 78 80
21 23 24 25 18 11 15 12 12 7 9 10 18 20 21 22 22 23 24 24 25 25 24 26 28 30 32 35 38 39 41 44 46 49 52 52 53 57 61 64 67 70 72 73 74 76 79 81 84
15 16 17 13 16 11 9 11 13 8 10 9 11 12 13 13 13 15 16 18 19 21 22 24 27 30 34 36 38 41 43 47 50 51 52 56 60 63 66 68 70 72 72 74 77 79 82 83 81
Wind_Direction
251 250 250 247 244 240 235 244 245 245 243 245 251 255 260 267 266 261 262 265 266 275 284 292 298 301 303 306 308 305 302 304 302 300 284 275 271 268 268 265 262 263 264 264 269 273 283 297 312
252 249 246 246 247 247 243 251 257 242 242 244 249 255 258 263 265 269 267 267 274 278 286 291 294 296 297 297 298 300 297 298 299 294 293 279 273 271 270 270 269 266 265 264 265 268 272 280 291
250 250 247 244 239 246 246 207 264 252 250 249 248 251 258 257 259 261 262 265 268 279 282 286 291 294 295 295 292 291 290 289 290 291 289 285 276 272 274 275 271 268 267 267 266 267 271 277 281
251 249 247 244 240 238 240 238 231 257 247 249 252 251 251 255 253 253 258 266 270 277 283 288 291 292 291 290 289 286 284 284 286 288 287 286 279 271 269 271 272 270 270 268 268 266 269 270 272
251 251 250 248 239 235 241 240 252 251 253 247 250 250 251 248 246 249 258 265 271 278 283 286 289 290 288 285 283 282 283 284 284 285 286 281 284 279 266 266 268 265 267 270 268 268 268 270 272
249 251 251 249 245 237 236 243 247 214 249 247 246 249 240 242 241 245 251 260 272 281 285 286 287 290 293 285 281 282 283 285 285 284 282 284 284 281 265 258 259 258 260 265 268 270 271 273 276
248 250 252 250 245 234 235 230 245 260 244 248 243 249 240 240 241 247 254 264 274 279 283 285 286 288 291 293 286 284 286 286 287 286 286 283 287 284 277 271 270 267 266 266 268 270 273 275 276
248 247 247 251 249 241 238 250 222 241 250 237 235 253 234 241 247 254 261 266 272 278 282 283 284 285 288 292 295 290 284 285 284 285 282 288 286 284 284 281 276 271 272 271 271 271 271 273 276
247 248 250 251 251 247 233 233 255 257 234 235 241 245 244 245 246 257 260 266 272 273 277 275 277 286 294 299 293 290 287 279 273 272 273 279 277 278 279 278 277 276 275 274 273 275 276 276 277
249 252 252 248 247 244 234 235 247 256 243 235 243 243 247 248 252 254 258 265 272 275 270 268 274 280 288 290 286 286 281 280 275 273 276 277 276 277 278 279 279 279 280 280 279 279 278 278 278
248 249 250 248 245 242 243 236 246 241 231 239 244 243 243 247 250 251 255 263 271 272 270 269 269 274 278 280 280 279 280 280 279 277 274 272 275 279 279 280 283 284 284 284 284 284 284 285 285
250 248 244 244 246 243 243 239 239 254 261 224 238 251 246 243 249 251 252 260 269 270 271 272 271 271 274 277 276 279 277 277 277 279 277 272 275 277 272 275 281 286 286 287 288 288 288 288 289
254 251 248 246 243 244 245 238 237 247 240 242 237 247 248 249 249 248 252 253 260 265 271 272 272 274 275 278 281 281 284 286 281 285 282 274 271 270 270 276 284 290 292 292 293 292 292 290 290
257 254 250 249 249 246 245 242 236 237 246 245 239 240 243 240 244 249 253 253 254 260 265 268 269 272 275 281 288 289 288 290 291 290 285 274 268 271 278 276 290 292 292 292 292 292 292 292 292
260 256 253 251 251 249 248 240 243 233 240 245 239 237 244 244 249 248 244 251 255 259 263 270 271 272 272 283 282 288 289 283 289 290 289 277 271 271 272 279 296 300 296 296 295 296 299 297 295
266 259 256 253 252 248 250 242 239 234 235 239 245 234 234 241 245 251 246 253 258 262 266 267 275 274 277 284 284 284 284 284 290 282 294 283 268 273 284 280 289 296 299 298 298 297 296 296 293
275 270 265 258 257 256 250 245 238 238 235 234 243 243 233 239 240 244 247 251 255 257 264 268 266 272 281 285 287 275 277 279 286 290 272 281 290 290 292 285 288 295 301 299 297 296 295 294 291
267 266 266 266 266 257 255 245 242 236 237 234 236 239 236 236 239 245 248 249 227 252 259 266 269 276 282 273 269 286 273 277 288 288 292 290 293 289 281 287 289 290 295 296 295 294 291 290 289
277 273 267 266 265 259 255 252 247 238 234 235 235 236 233 236 236 241 246 251 252 257 263 264 272 288 276 283 278 273 267 277 289 287 286 288 290 290 290 290 290 292 293 292 291 290 290 291 290
283 275 270 264 255 252 251 250 249 243 231 234 232 234 238 233 231 238 245 252 257 262 255 279 280 283 300 293 279 269 283 292 290 288 290 290 289 290 290 290 289 289 290 289 290 291 290 289 288
295 288 283 272 256 250 247 245 247 242 236 231 232 232 229 235 235 237 242 249 254 259 261 263 269 282 291 281 272 279 293 290 292 293 291 290 288 288 287 289 289 289 290 291 292 292 291 289 287
307 297 292 285 269 249 246 247 243 240 235 230 228 233 232 232 233 231 241 248 253 258 257 262 270 272 267 269 268 279 289 288 290 289 291 289 289 289 290 291 291 292 293 294 293 290 288 288 288
326 309 285 274 261 250 232 235 241 234 225 230 226 231 233 231 234 238 238 245 248 252 262 266 269 267 267 272 277 287 288 288 288 290 290 289 291 292 292 293 293 294 295 292 289 289 288 287 287
333 316 317 302 288 258 224 230 222 199 192 242 231 229 231 232 234 237 234 238 249 254 259 268 271 273 270 274 282 285 288 290 291 291 292 289 294 296 295 295 295 295 292 290 290 291 291 292 292
334 320 309 324 17 17 190 210 176 199 198 226 227 218 219 221 229 234 239 243 245 251 257 264 264 269 271 276 281 285 286 289 293 292 291 291 295 295 296 296 295 292 291 292 293 293 293 294 294
359 354 352 347 326 300 320 238 179 186 188 205 193 231 234 224 226 232 238 242 246 252 257 263 267 269 271 278 283 285 288 289 292 291 292 293 295 296 296 294 292 293 294 294 295 296 296 295 294
19 17 28 44 55 107 73 104 69 94 186 176 190 206 212 215 223 228 232 237 242 250 257 264 268 272 278 280 282 284 285 289 291 292 293 293 295 295 294 293 294 295 296 296 296 296 295 294 294
13 8 24 23 68 131 68 56 74 90 127 190 200 204 207 209 217 226 233 240 246 251 255 261 266 270 274 278 280 282 287 290 290 292 293 294 296 296 295 296 297 297 297 297 296 295 295 296 297
17 23 35 90 89 103 135 113 116 133 164 189 195 207 209 213 222 231 238 245 248 253 258 263 265 269 273 276 281 285 289 291 291 292 295 295 294 295 296 296 297 298 297 296 296 298 298 299 299
11 32 38 61 37 106 151 153 151 159 182 194 184 203 206 213 225 232 238 245 252 258 262 264 269 272 277 283 286 289 290 291 293 294 293 294 295 296 297 298 297 297 297 297 298 299 299 299 297
Height
5871 5872 5872 5873 5878 5877 5877 5878 5876 5877 5878 5880 5881 5882 5883 5884 5885 5886 5885 5886 5887 5887 5888 5888 5888 5887 5887 5886 5885 5884 5883 5882 5881 5880 5880 5880 5880 5879 5879 5879 5879 5880 5880 5880 5880 5880 5880 5879 5879
5867 5867 5869 5869 5872 5873 5874 5875 5874 5874 5874 5876 5878 5880 5879 5882 5882 5883 5883 5883 5885 5885 5885 5886 5885 5885 5884 5884 5883 5882 5881 5880 5879 5878 5878 5878 5878 5877 5877 5877 5877 5878 5878 5878 5878 5878 5878 5878 5878
5861 5862 5863 5864 5867 5871 5871 5872 5873 5868 5873 5873 5874 5875 5877 5879 5879 5881 5882 5881 5882 5883 5883 5883 5883 5882 5881 5880 5880 5879 5878 5878 5877 5876 5875 5875 5875 5875 5876 5875 5875 5875 5875 5876 5876 5876 5876 5876 5877
5855 5856 5858 5859 5862 5866 5867 5869 5865 5867 5867 5868 5869 5871 5872 5875 5877 5878 5879 5879 5880 5880 5880 5880 5880 5879 5878 5877 5876 5876 5875 5875 5874 5873 5873 5872 5872 5872 5873 5873 5873 5873 5873 5873 5874 5874 5874 5874 5874
5848 5849 5851 5853 5858 5861 5862 5865 5859 5860 5864 5862 5864 5867 5870 5871 5873 5874 5876 5876 5876 5877 5877 5877 5876 5876 5875 5874 5873 5872 5872 5871 5871 5870 5870 5869 5869 5869 5869 5869 5870 5870 5871 5871 5871 5871 5871 5871 5871
5840 5843 5844 5847 5853 5855 5857 5861 5853 5841 5859 5858 5858 5861 5865 5867 5869 5870 5871 5872 5873 5874 5873 5873 5873 5872 5871 5870 5869 5868 5867 5867 5867 5867 5866 5865 5865 5866 5866 5866 5867 5867 5867 5867 5868 5868 5868 5868 5868
5834 5836 5838 5841 5844 5848 5853 5856 5858 5854 5854 5852 5855 5855 5862 5863 5864 5866 5867 5868 5869 5870 5870 5869 5869 5868 5868 5866 5865 5865 5864 5863 5863 5863 5863 5863 5862 5863 5863 5863 5864 5864 5865 5865 5865 5865 5865 5866 5865
5829 5828 5831 5835 5837 5842 5848 5845 5848 5840 5847 5849 5852 5851 5856 5858 5860 5861 5862 5863 5864 5865 5866 5865 5865 5864 5864 5863 5862 5862 5861 5860 5860 5860 5860 5860 5860 5859 5859 5859 5860 5861 5861 5862 5862 5862 5862 5862 5862
5818 5821 5826 5830 5831 5837 5841 5841 5834 5831 5841 5846 5845 5842 5853 5853 5854 5856 5857 5858 5859 5860 5861 5862 5862 5861 5860 5860 5860 5859 5859 5858 5858 5858 5857 5857 5856 5856 5856 5856 5856 5856 5857 5857 5857 5858 5858 5858 5858
5810 5814 5820 5821 5824 5826 5830 5833 5828 5833 5838 5839 5840 5840 5845 5846 5849 5851 5853 5854 5854 5855 5856 5857 5858 5857 5857 5857 5856 5856 5856 5855 5855 5855 5855 5854 5854 5853 5853 5853 5853 5852 5853 5853 5853 5853 5853 5853 5853
5801 5809 5809 5812 5813 5816 5820 5828 5827 5823 5818 5833 5836 5835 5837 5840 5844 5846 5848 5849 5850 5849 5851 5853 5853 5854 5854 5852 5853 5852 5852 5852 5852 5851 5851 5850 5850 5850 5850 5849 5850 5849 5849 5848 5848 5848 5848 5849 5849
5793 5797 5798 5802 5805 5807 5811 5820 5820 5812 5818 5823 5830 5827 5832 5834 5838 5841 5843 5844 5846 5845 5845 5848 5848 5849 5849 5849 5849 5848 5848 5848 5848 5847 5847 5847 5846 5846 5845 5845 5845 5845 5844 5844 5843 5843 5843 5843 5843
5786 5788 5789 5791 5794 5798 5800 5808 5813 5812 5817 5821 5824 5823 5824 5829 5832 5835 5837 5839 5841 5840 5841 5843 5844 5844 5846 5846 5846 5845 5844 5844 5843 5843 5842 5841 5840 5840 5841 5841 5841 5840 5839 5839 5839 5839 5838 5837 5837
5776 5777 5780 5782 5785 5787 5789 5797 5802 5811 5808 5810 5816 5818 5818 5823 5825 5828 5832 5834 5835 5835 5835 5838 5839 5841 5839 5840 5841 5840 5838 5837 5838 5837 5837 5836 5836 5835 5836 5836 5836 5836 5835 5834 5834 5833 5832 5832 5831
5768 5768 5769 5773 5775 5778 5777 5783 5797 5802 5797 5798 5805 5811 5812 5817 5817 5822 5826 5829 5829 5829 5830 5833 5834 5836 5834 5838 5834 5835 5832 5831 5832 5831 5831 5831 5831 5831 5830 5831 5831 5830 5829 5829 5829 5828 5827 5826 5825
5758 5758 5760 5765 5763 5767 5765 5777 5786 5785 5786 5792 5791 5803 5807 5810 5813 5817 5821 5822 5825 5824 5827 5829 5830 5829 5832 5830 5828 5828 5827 5827 5826 5827 5826 5825 5824 5825 5825 5826 5826 5825 5824 5823 5822 5821 5820 5819 5817
5747 5748 5748 5751 5752 5752 5753 5765 5770 5773 5777 5784 5787 5792 5801 5803 5806 5810 5814 5814 5817 5817 5821 5824 5825 5825 5825 5824 5822 5821 5822 5821 5821 5820 5820 5819 5818 5818 5819 5820 5819 5818 5817 5816 5815 5814 5812 5811 5810
5735 5733 5735 5737 5742 5740 5739 5747 5755 5762 5765 5773 5778 5784 5793 5795 5800 5803 5807 5810 5792 5810 5815 5819 5819 5821 5817 5818 5816 5817 5816 5816 5816 5816 5815 5814 5813 5813 5812 5812 5812 5811 5810 5808 5807 5806 5804 5803 5802
5722 5720 5721 5726 5726 5723 5729 5732 5739 5749 5756 5762 5767 5773 5783 5788 5794 5796 5798 5799 5807 5802 5800 5808 5812 5814 5812 5813 5812 5811 5807 5807 5809 5811 5810 5809 5807 5806 5806 5805 5804 5803 5802 5800 5798 5798 5796 5794 5793
5711 5708 5709 5709 5711 5710 5715 5719 5726 5734 5747 5750 5758 5765 5774 5778 5785 5789 5791 5793 5797 5803 5784 5799 5805 5805 5808 5806 5806 5803 5799 5803 5805 5805 5803 5802 5801 5800 5799 5797 5796 5794 5793 5791 5790 5788 5785 5784 5782
5702 5696 5695 5694 5697 5696 5701 5706 5714 5721 5733 5742 5750 5757 5765 5772 5777 5783 5788 5788 5791 5796 5799 5800 5801 5801 5801 5800 5800 5797 5797 5797 5799 5798 5796 5795 5794 5792 5791 5789 5787 5785 5783 5781 5779 5777 5775 5773 5771
5693 5689 5685 5683 5683 5685 5694 5696 5705 5713 5721 5732 5741 5748 5755 5763 5767 5774 5779 5784 5788 5788 5790 5794 5796 5797 5796 5794 5792 5791 5791 5793 5792 5790 5788 5787 5785 5783 5781 5779 5778 5775 5774 5770 5768 5766 5765 5763 5761
5689 5684 5679 5676 5675 5676 5684 5687 5700 5708 5713 5722 5734 5741 5749 5755 5762 5767 5774 5778 5781 5781 5784 5786 5789 5790 5788 5788 5784 5786 5785 5785 5783 5781 5780 5778 5776 5774 5772 5770 5767 5764 5762 5760 5758 5756 5754 5752 5750
5688 5683 5678 5673 5671 5671 5680 5683 5695 5701 5709 5717 5727 5736 5742 5750 5755 5760 5768 5772 5774 5777 5778 5779 5782 5783 5780 5778 5777 5779 5777 5776 5775 5773 5771 5769 5767 5764 5762 5760 5756 5754 5751 5748 5746 5743 5740 5736 5733
5691 5684 5679 5676 5674 5672 5675 5678 5688 5698 5706 5711 5720 5727 5735 5743 5749 5753 5759 5764 5770 5772 5773 5773 5776 5775 5775 5773 5772 5771 5770 5768 5766 5763 5762 5759 5758 5755 5752 5747 5745 5743 5739 5736 5733 5729 5725 5720 5715
5691 5685 5679 5677 5677 5678 5678 5681 5691 5692 5697 5706 5712 5724 5728 5738 5746 5750 5755 5758 5761 5765 5766 5766 5766 5769 5768 5767 5766 5764 5762 5760 5758 5755 5752 5750 5747 5745 5741 5736 5733 5730 5727 5722 5718 5713 5708 5702 5696
5695 5690 5686 5684 5683 5681 5681 5687 5688 5689 5701 5698 5713 5715 5725 5734 5740 5745 5749 5753 5756 5758 5761 5761 5761 5760 5760 5760 5758 5757 5755 5752 5750 5746 5742 5740 5736 5732 5728 5725 5721 5716 5712 5707 5701 5696 5690 5683 5676
5699 5695 5693 5685 5688 5687 5690 5691 5692 5699 5704 5711 5716 5720 5724 5730 5735 5739 5744 5747 5751 5753 5754 5755 5756 5756 5754 5753 5752 5749 5747 5744 5740 5737 5733 5729 5724 5720 5716 5711 5705 5700 5694 5688 5682 5677 5670 5663 5655
5705 5703 5699 5698 5697 5696 5696 5698 5701 5705 5708 5712 5717 5720 5724 5728 5732 5736 5740 5743 5745 5747 5749 5750 5750 5749 5748 5746 5743 5742 5738 5734 5730 5727 5722 5718 5713 5708 5702 5696 5689 5683 5677 5670 5663 5656 5648 5641 5633
5709 5709 5708 5705 5703 5701 5703 5705 5705 5709 5711 5715 5718 5721 5724 5726 5730 5734 5737 5739 5741 5742 5743 5743 5742 5741 5740 5738 5735 5731 5728 5724 5720 5715 5711 5705 5700 5694 5687 5680 5673 5666 5658 5651 5644 5636 5628 5620 5611